Location: Black Creek
(40.9000°S, 175.5500°E)
Time: 17:49:34
(UTC+00:00)

Cosmos 1844 Rocket - Pass Details

Date: 04 August 2024
Orbit: 822 x 845 km, 71.0° (Epoch: 17 September)

Event Time Altitude Azimuth Distance (km) Brightness Sun altitude
Exits shadow 18:17:34 14° 238° (WSW) 2,190 4.3 -12.2°
Maximum altitude 18:18:28 15° 227° (SW) 2,162 4.3 -12.0°
Drops below altitude 10° 18:21:36 10° 193° (SSW) 2,490 4.9 -11.4°
Sets 18:25:17 0° 170° (S) 3,427 5.8 -10.7°
